Regional Weather Roundup
Issued by NWS

Home | Current Version | Previous Version | Text Only | Print | Product List | Glossary On
Versions: 1 2 3 4 5 6 7 8 9 10 11 12 13 14 15 16 17 18 19 20 21 22 23 24 25 26 27 28 29 30 31 32 33 34 35 36 37 38 39 40 41 42 43 44 45 46 47 48 49 50
000
ASUS44 KFWD 200815
RWRTX
NORTH TEXAS HOURLY WEATHER ROUNDUP
NATIONAL WEATHER SERVICE FORT WORTH TX
200 AM CST MON NOV 20 2017

NOTE: "FAIR" INDICATES FEW OR NO CLOUDS BELOW 12,000 FEET WITH NO
SIGNIFICANT WEATHER AND/OR OBSTRUCTIONS TO VISIBILITY.

TXZ118-119-200900-
DALLAS/FORT WORTH METROPLEX

CITY           SKY/WX    TMP DP  RH WIND       PRES   REMARKS
DFW AIRPORT    CLOUDY    43  34  70 SW5       30.18F
DALLAS LOVE    CLOUDY    47  31  53 CALM      30.20F
FTW MEACHAM    CLOUDY    47  31  53 S3        30.19F
DAL-EXECUTIVE  CLOUDY    47  30  51 S5        30.19F
FTW-ALLIANCE   CLOUDY    42  32  67 S5        30.19F WCI  39
FTW-NAS-JRB    CLOUDY    45  32  60 S7        30.20F
FTW-SPINKS     CLOUDY    35  31  84 CALM      30.21F
ARLINGTON      CLOUDY    37  32  82 CALM      30.20F
GRAND PRAIRIE  CLOUDY    44  30  58 CALM      30.22F
ADDISON        CLOUDY    48  27  45 CALM      30.22S
MESQUITE       CLOUDY    38  33  80 CALM      30.21F
LANCASTER      CLOUDY    35  31  88 CALM      30.22F
$$

TXZ091>094-102>105-117-120-121-131>134-200900-
NORTH CENTRAL TEXAS

CITY           SKY/WX    TMP DP  RH WIND       PRES   REMARKS
SHRMAN/DENISON CLOUDY    45  28  53 SE9       30.20S WCI  40
GAINESVILLE    CLOUDY    39  28  64 CALM      30.20F
BOWIE          CLOUDY    40  30  68 SE3       30.18F
DENTON         CLOUDY    36  30  79 E3        30.19F
MCKINNEY       CLOUDY    38  32  79 CALM      30.20F
BONHAM         CLOUDY   N/A N/A N/A S5        30.20F
GREENVILLE     CLOUDY    37  34  87 CALM      30.21F
ROCKWALL       CLOUDY    47  28  47 SE6       30.21F
TERRELL        CLEAR     37  32  82 CALM      30.22F
WAXAHACHIE     CLEAR     40  30  66 CALM      30.22F
CLEBURNE       CLOUDY    45  28  53 S6        30.21F
GRANBURY       CLOUDY    36  33  86 CALM      30.21F
$$

TXZ083>090-098>101-113>116-127>130-139>142-154-155-200900-
WESTERN NORTH TEXAS

CITY           SKY/WX    TMP DP  RH WIND       PRES   REMARKS
WICHITA FALLS  CLOUDY    37  27  67 S9        30.15F WCI  30
WF-KICKAPOO    CLOUDY    40  29  65 S7        30.18F WCI  35
VERNON         CLOUDY    37  23  57 SW6       30.15F WCI  32
ABILENE        CLOUDY    38  29  70 S5        30.16F WCI  34
ABILENE-DYESS  CLEAR     38  29  70 S6        30.19F WCI  34
GRAHAM           N/A     36  30  80 CALM      30.16F
BRECKENRIDGE   CLOUDY    41  30  65 CALM      30.18F
CISCO          CLOUDY    39  28  65 S6        30.18F WCI  35
EASTLAND       CLOUDY    30  27  90 CALM      30.18F
RANGER         CLOUDY    40  30  68 S6        30.19F WCI  36
MINERAL WELLS  CLOUDY    37  30  75 CALM      30.18F
STEPHENVILLE   CLOUDY    39  31  71 CALM      30.22S
COMANCHE       CLOUDY    40  31  70 S8        30.20S WCI  34
COLEMAN        CLOUDY    39  29  67 S3        30.18F
$$

TXZ143>147-156>162-174-175-200900-
CENTRAL TEXAS

CITY           SKY/WX    TMP DP  RH WIND       PRES   REMARKS
WACO           CLOUDY    36  33  89 CALM      30.22F FOG
WACO-MCGREGOR  PTCLDY    37  33  85 CALM      30.22F
HILLSBORO      PTCLDY    44  32  62 CALM      30.21S
CORSICANA      PTCLDY    43  33  68 S3        30.23F
MEXIA          CLOUDY    46  27  47 CALM      30.21F
HEARNE         PTCLDY    37  37  98 CALM      30.24S
CAMERON        PTCLDY    41  35  78 CALM      30.23S
TEMPLE         CLOUDY    39  30  70 CALM      30.22F
KILLEEN        CLEAR     37  31  79 CALM      30.20F
KILLEEN-SKYLRK CLOUDY    40  33  76 CALM      30.22F
FORT HOOD      PTCLDY    43  32  65 CALM      30.18F
GATESVILLE     PTCLDY    37  32  81 CALM      30.23F
HAMILTON       CLOUDY    41  30  64 S6        30.21S WCI  37
LAMPASAS       CLOUDY    40  33  75 CALM      30.20S
$$

TXZ095>097-106>112-122>126-135>138-148>153-164>167-200900-
EAST TEXAS

CITY           SKY/WX    TMP DP  RH WIND       PRES   REMARKS
PARIS          PTCLDY    38  31  76 S3        30.21F
SULPHUR SPRNGS CLOUDY    38  33  82 CALM      30.24F
MOUNT PLEASANT CLOUDY    34  33  96 CALM      30.24S
GILMER         CLOUDY    36  33  90 MISG      30.22F
MINEOLA        PTCLDY    34  32  93 CALM      30.22F
TYLER          CLOUDY    39  36  89 CALM      30.22F
LONGVIEW       NOT AVBL
MARSHALL       CLOUDY    33  32  95 CALM      30.25F
ATHENS         CLOUDY    32  32 100 CALM      30.21F
PALESTINE      CLOUDY    38  33  83 CALM      30.23F
JACKSONVILLE   CLOUDY    47  29  50 CALM      30.23S
HENDERSON      CLOUDY    35  34  96 CALM      30.23F
CENTER         CLOUDY    35  33  94 CALM      30.24S
NACOGDOCHES    CLOUDY    34  33  96 CALM      30.23F
LUFKIN         CLOUDY    39  37  92 CALM      30.22F
$$

SUPPLEMENTAL OBSERVATIONS (NWS FORT WORTH AREA)

CITY           SKY/WX    TMP DP  RH WIND       PRES   REMARKS
DENISON DAM      N/A     48  28  46 S6          N/A
CADDO GRASSLND   N/A     37  30  75 S2          N/A
PAT MAYSE LAKE   N/A     39  30  70 CALM        N/A
GREENVILLE       N/A     41  30  65 SE2         N/A
CEDAR HILL       N/A     43  30  61 W1          N/A
LBJ GRASSLAND    N/A     45  28  53 SE5         N/A
POSSUM KINGDOM   N/A     45  30  57 S9          N/A  WCI  40
GRANBURY         N/A     36  32  87 S3          N/A
MCGREGOR         N/A     37  32  81 SW2         N/A
TEMPLE           N/A     43  32  65 NW1         N/A
ATHENS           N/A     41  36  81 CALM        N/A
$$

SUPPLEMENTAL OBSERVATIONS (NWS NORMAN AREA)

CITY           SKY/WX    TMP DP  RH WIND       PRES   REMARKS
GOODLETT         N/A     31  21  65 SW8       30.12F WCI  24
ODELL            N/A     41  25  53 S7        30.15F WCI  37
CROWELL          N/A     35  23  61 SW6       30.15F WCI  30
KNOX CITY        N/A     37  26  63 SW3       30.16F
SEYMOUR          N/A     41  28  60 S9        30.15F WCI  35
MILLERS CREEK    N/A     37  30  75 SW6         N/A  WCI  33
$$

SUPPLEMENTAL OBSERVATIONS (NWS SAN ANGELO AREA)

CITY           SKY/WX    TMP DP  RH WIND       PRES   REMARKS
WEINERT          N/A     40  27  59 S7        30.16F WCI  36
HASKELL          N/A     37  27  68 S5        30.16F WCI  33
THROCKMORTON     N/A     40  29  64 S6        30.17F WCI  35
STAMFORD         N/A     36  29  75 S6        30.17F WCI  32
CLYDE            N/A     40  28  63 S7        30.17F WCI  35
HAMBY            N/A     39  28  65 S5          N/A  WCI  36
IVIE RESERVOIR   N/A     37  28  70 SE5         N/A  WCI  34
COLORADO BEND    N/A     39  27  60 CALM        N/A
$$

SUPPLEMENTAL OBSERVATIONS (NWS SHREVEPORT AREA)

CITY           SKY/WX    TMP DP  RH WIND       PRES   REMARKS
CLARKSVILLE      N/A     34  30  86 CALM        N/A
TEXARKANA        N/A     32  32 100 CALM        N/A
LINDEN           N/A     37  34  87 CALM        N/A
CADDO LAKE       N/A     30  30 100 CALM        N/A
GILMER           N/A     36  32  87 CALM        N/A
HENDERSON        N/A     36  34  93 CALM        N/A
LUFKIN           N/A     37  36  93 MISG        N/A
N SABINE NF      N/A     34  32  93 MISG        N/A
S SABINE NF      N/A     37  36  93 CALM        N/A
$$

SUPPLEMENTAL OBSERVATIONS ARE A COLLECTION OF AUTOMATED INSTRUMENTS
THAT ARE MAINTAINED BY A VARIETY OF FEDERAL AND STATE AGENCIES.
CERTAIN ELEMENTS...SUCH AS HUMIDITY VALUES AND SUSTAINED WIND
SPEEDS...MAY BE APPROXIMATED.




USA.gov is the U.S. government's official web portal to all federal, state and local government web resources and services.